Vagabond Aaf / Yakim, WA

11:53 AM PDT on July 23, 2017 (GMT -0700)
Vagabond Aaf / Yakim

Weather History for K1YT - April, 2014

Change the Weather History Date:

Saturday, April 5, 2014

  Actual Average (KYKM) Record (KYKM)
Temperature  
Mean Temperature 46 °F -  
Max Temperature 59 °F 62 °F 78 °F (1952)
Min Temperature 33 °F 32 °F 22 °F (1975)
Degree Days  
Heating Degree Days 19    
Moisture  
Dew Point 34 °F    
Average Humidity 62    
Maximum Humidity 84    
Minimum Humidity 38    
Precipitation  
Precipitation 0.00 in - - ()
Sea Level Pressure  
Sea Level Pressure 29.97 in    
Wind  
Wind Speed 5 mph (SW)    
Max Wind Speed 16 mph    
Max Gust Speed 23 mph    
Visibility 12 miles    
Events Rain    
Averages and records for this station are not official NWS values.
T = Trace of Precipitation, MM = Missing Value Source: NWS Daily Summary

Daily Weather History Graph

Daily Weather History Graph

Search for Another Location

Airport or City:

Trip Planner

Search our weather history database for the weather conditions in past years. The results will help you decide how hot, cold, wet, or windy it might be!

Date:

Astronomy

Apr. 05, 2014 Rise Set
Actual Time 6:33 AM PDT 7:36 PM PDT
Civil Twilight 6:02 AM PDT 8:07 PM PDT
Nautical Twilight 5:25 AM PDT 8:44 PM PDT
Astronomical Twilight 4:46 AM PDT 9:23 PM PDT
Moon 10:32 AM PDT (4/5) 1:03 AM PDT (4/5)
Length of Visible Light 14h 05m
Length of Day
13h 03m
Waxing Crescent, 35% of the Moon is Illuminated
Apr 5
Waxing Crescent
Apr 7
First Quarter
Apr 15
Full
Apr 22
Last Quarter
Apr 28
New

Hourly Weather History & Observations

Time (PDT) Temp. Windchill Dew Point Humidity Pressure Visibility Wind Dir Wind Speed Gust Speed Precip Events Conditions
12:56 AM 36.9 °F 34.3 °F 29.3 °F 74% 29.95 in 12.0 mi NNE 3.5 mph - N/A   Partly Cloudy
1:56 AM 34.3 °F 30.2 °F 28.9 °F 81% 29.94 in 12.0 mi East 4.6 mph - N/A   Clear
2:56 AM 34.7 °F 30.6 °F 30.0 °F 83% 29.95 in 12.0 mi SW 4.6 mph - N/A   Scattered Clouds
3:56 AM 37.9 °F - 30.4 °F 74% 29.95 in 12.0 mi SW 2.3 mph - N/A   Overcast
4:56 AM 35.1 °F 32.2 °F 30.0 °F 82% 29.96 in 12.0 mi South 3.5 mph - N/A   Partly Cloudy
5:56 AM 36.9 °F 34.3 °F 29.3 °F 74% 29.97 in 12.0 mi ESE 3.5 mph - N/A   Scattered Clouds
6:56 AM 33.4 °F - 29.1 °F 84% 29.98 in 12.0 mi SSW 2.3 mph - N/A   Partly Cloudy
7:56 AM 36.9 °F - 29.8 °F 76% 30.01 in 12.0 mi Calm Calm - N/A   Partly Cloudy
8:56 AM 40.6 °F - 31.6 °F 70% 30.01 in 12.0 mi WNW 2.3 mph - N/A   Clear
9:56 AM 46.2 °F 45.0 °F 34.2 °F 63% 30.01 in 12.0 mi North 3.5 mph - N/A   Clear
10:56 AM 51.1 °F - 35.1 °F 54% 30.01 in 12.0 mi West 5.8 mph - N/A   Scattered Clouds
12:56 PM 57.0 °F - 32.2 °F 39% 29.99 in 12.0 mi SW 3.5 mph 19.6 mph N/A   Clear
1:56 PM 58.1 °F - 35.4 °F 43% 29.99 in 12.0 mi SSW 6.9 mph - N/A   Scattered Clouds
2:56 PM 59.4 °F - 34.0 °F 39% 29.97 in 12.0 mi SSW 6.9 mph - N/A   Mostly Cloudy
3:56 PM 58.6 °F - 33.1 °F 38% 29.96 in 12.0 mi Variable 3.5 mph - N/A   Mostly Cloudy
4:56 PM 58.5 °F - 38.1 °F 47% 29.95 in 12.0 mi SSW 13.8 mph 20.7 mph N/A   Scattered Clouds
5:26 PM 57.2 °F - 39.2 °F 51% 29.95 in 12.0 mi SW 16.1 mph 19.6 mph N/A Rain Light Rain
5:51 PM 57.2 °F - 39.2 °F 51% 29.95 in 12.0 mi SW 16.1 mph 23.0 mph N/A   Mostly Cloudy
5:56 PM 56.8 °F - 38.5 °F 50% 29.95 in 12.0 mi SW 16.1 mph 21.9 mph N/A   Mostly Cloudy
6:56 PM 55.2 °F - 37.9 °F 52% 29.95 in 12.0 mi WSW 16.1 mph 21.9 mph N/A   Mostly Cloudy
7:56 PM 52.0 °F - 38.5 °F 60% 29.95 in 12.0 mi WSW 6.9 mph - N/A   Mostly Cloudy
8:56 PM 52.2 °F - 38.3 °F 59% 29.97 in 12.0 mi SSW 10.4 mph - N/A   Mostly Cloudy
9:56 PM 48.9 °F - 37.9 °F 66% 29.98 in 12.0 mi NNW 3.5 mph - N/A   Partly Cloudy
10:56 PM 45.9 °F 41.7 °F 36.0 °F 68% 30.00 in 12.0 mi ESE 8.1 mph - N/A   Partly Cloudy
11:56 PM 44.6 °F 41.4 °F 37.0 °F 75% 30.02 in 12.0 mi East 5.8 mph - N/A   Scattered Clouds